Regional Weather Roundup
Issued by NWS Newport/Morehead, NC

Current Version | Previous Version | Graphics & Text | Print | Product List | Glossary Off
Versions: 1 2 3 4 5 6 7 8 9 10 11 12 13 14 15 16 17 18 19 20 21 22 23 24 25 26 27 28 29 30 31 32 33 34 35 36 37 38 39 40 41 42 43 44 45 46 47 48 49 50

000
ASUS42 KMHX 040613
RWRMHX
WEATHER ROUNDUP FOR EASTERN NORTH CAROLINA
NATIONAL WEATHER SERVICE NEWPORT/MOREHEAD CITY NC
200 AM EDT FRI SEP 04 2015

NOTE: "FAIR" INDICATES FEW OR NO CLOUDS BELOW 12,000 FEET
WITH NO SIGNIFICANT WEATHER AND/OR OBSTRUCTIONS TO VISIBILITY

NCZ015>017-031-032-045>047-102-103-040700-
NORTH COAST

CITY           SKY/WX    TMP DP  RH WIND       PRES   REMARKS
EDENTON        PTCLDY    73  70  92 CALM      29.90S
ELIZABETH CITY PTCLDY    73  71  93 CALM      29.89F
KITTY HAWK     PTCLDY    76  72  89 SW3       29.88F
MANTEO         PTCLDY    74  73  93 CALM      29.90S

$$

NCZ045>047-081-094-103-104-040700-
CENTRAL COAST

CITY           SKY/WX    TMP DP  RH WIND       PRES   REMARKS
FRISCO         PTCLDY    75  73  93 W3        29.90S
SWANQUARTER      N/A     75 N/A N/A NW1       29.85F

$$

NCZ095-097-098-100-101-040700-
SOUTHERN COAST

CITY           SKY/WX    TMP DP  RH WIND       PRES   REMARKS
BEAUFORT       CLEAR     77  73  87 NW6       29.90S
CEDAR ISLAND     N/A     77 N/A N/A W3        29.94S
JACKSONVILLE   CLEAR     72  70  93 CALM      29.90S
PINEY ISLAND   PTCLDY   N/A N/A N/A SW3       29.90S
WILMINGTON     CLEAR     72  69  90 CALM      29.91S


$$

NCZ011>013-027>030-043-044-078>080-089-090>093-098-040700-
COASTAL PLAIN

CITY           SKY/WX    TMP DP  RH WIND       PRES   REMARKS
AHOSKIE        CLEAR     70  70  98 CALM      29.91S FOG
CLINTON        CLEAR     71  71 100 CALM      29.92F FOG
ELIZABETHTOWN  CLEAR     73  71  95 CALM      29.92S
GOLDSBORO      CLEAR     73  72  95 CALM      29.90S
GREENVILLE       N/A     72  72 100 CALM      29.93S FOG
HAVELOCK       CLEAR     74  71  91 CALM      29.92S
KENANSVILLE      N/A     70  69  96 CALM      29.92F FOG
KINSTON        CLEAR     71  70  98 CALM      29.92S
NEW BERN       CLEAR     73  70  90 CALM      29.91F
RICHLANDS      CLEAR     70  64  83 CALM      29.91S
ROCKY MOUNT    CLEAR     71  70  96 CALM      29.91S FOG
WASHINGTON     CLEAR     71  70  98 CALM      29.91S
WHITEVILLE     CLEAR     71  69  94 CALM      29.91F

$$

AMZ130-135-150-152-154-156-158-170-250-252-270-ANZ085-086-088-633-658-670-040700-
MARINE OBSERVATIONS

STATION/POSITION TIME  TEMP    WIND        PRES    WAVE   SWELL
                       AIR SEA DIR/SP/G            HT/PER HT/PER
                 (UTC) (F)     (DEG/KT/KT) (MB)    (FT/S) (FT/S)
CHESAPEAKE LIGHT 0600   79     240/  5/  6 1012.6
64 E VA BEACH    0550   79 79  260/  6/  8 1011.5    1/12   2/12
DUCK             0500   79 80  240/  6/  6 1011.5
2 E DUCK         0511      80                N/A     1/13
OREGON INLET     0500   80 83  260/  4/  6 1012.3
13E OREGON INLT  0600      81                N/A     1/13
HATTERAS CG      0500   81 83  290/  5/  6 1012.3
DIAMOND BUOY     0550   81 85  320/  6/  8 1012.5    1/12   2/12
CAPE LOOKOUT     0600   80     320/  4/  6 1012.3
BEAUFORT LAB     0500   79 82  340/  2/  3 1012.0
30 SE NEW RVR IN 0508   80 81  340/  8/ 10 1012.7
30 SE NEW RVR IN 0525      81                N/A     2/ 4
27 SE WRIGHTSVLE 0500   77 82   30/  2/  4   N/A
5 SE WRIGHTSVLE  0508   79 82  310/  4/  6 1012.6
225 S CAPE HAT   0550   82 84  270/  4/  4 1012.7    2/ 4   2/ 4
41 SE CHARLESTON 0550   81 84  190/  6/  8 1012.8    1/ 8   2/ 8

$$



USA.gov is the U.S. government's official web portal to all federal, state and local government web resources and services.